Scottsbluff, NE

5:44 AM MDT on September 20, 2017 (GMT -0600)
Heilig

Weather History for KBFF - April, 2013

Change the Weather History Date:

Monday, April 1, 2013

  Actual Average Record
Temperature  
Mean Temperature 39 °F 42 °F  
Max Temperature 56 °F 57 °F 88 °F (2012)
Min Temperature 22 °F 28 °F -5 °F (1975)
Degree Days  
Heating Degree Days 26 23  
Month to date heating degree days 26 23  
Since 1 July heating degree days 5364 5764  
Cooling Degree Days 0 0  
Month to date cooling degree days 0 0  
Year to date cooling degree days 0 0  
Moisture  
Dew Point 22 °F    
Average Humidity 56    
Maximum Humidity 81    
Minimum Humidity 30    
Precipitation  
Precipitation 0.00 in 0.05 in 0.63 in (1905)
Month to date precipitation 0.00 0.05  
Year to date precipitation 0.75 2.06  
Snow  
Snow 0.00 in 0.30 in 4.40 in (1975)
Month to date snowfall 0.0 0.3  
Since 1 July snowfall 22.9 36.5  
Snow Depth 0.00 in    
Sea Level Pressure  
Sea Level Pressure 30.15 in    
Wind  
Wind Speed 8 mph (ESE)    
Max Wind Speed 16 mph    
Max Gust Speed 22 mph    
Visibility 10 miles    
Events      
T = Trace of Precipitation, MM = Missing Value Source: NWS Daily Summary

Daily Weather History Graph

Daily Weather History Graph

Search for Another Location

Airport or City:

Trip Planner

Search our weather history database for the weather conditions in past years. The results will help you decide how hot, cold, wet, or windy it might be!

Date:

Astronomy

Apr. 01, 2013 Rise Set
Actual Time 6:36 AM MDT 7:20 PM MDT
Civil Twilight 6:08 AM MDT 7:48 PM MDT
Nautical Twilight 5:35 AM MDT 8:21 PM MDT
Astronomical Twilight 5:00 AM MDT 8:56 PM MDT
Moon 12:34 AM MDT (4/1) 10:21 AM MDT (4/1)
Length of Visible Light 13h 39m
Length of Day
12h 43m
Waning Gibbous, 66% of the Moon is Illuminated
Apr 1
Waning Gibbous
Apr 2
Last Quarter
Apr 10
New
Apr 18
First Quarter
Apr 25
Full

Hourly Weather History & Observations

Time (MDT) Temp. Windchill Dew Point Humidity Pressure Visibility Wind Dir Wind Speed Gust Speed Precip Events Conditions
12:53 AM 33.1 °F 27.7 °F 17.1 °F 52% 30.17 in 10.0 mi East 5.8 mph - N/A   Clear
1:53 AM 33.1 °F 28.7 °F 18.0 °F 54% 30.16 in 10.0 mi East 4.6 mph - N/A   Partly Cloudy
2:53 AM 32.0 °F 26.4 °F 19.0 °F 59% 30.15 in 10.0 mi East 5.8 mph - N/A   Clear
3:53 AM 30.0 °F 23.2 °F 19.0 °F 64% 30.16 in 10.0 mi ENE 6.9 mph - N/A   Clear
4:53 AM 27.0 °F 21.6 °F 18.0 °F 69% 30.18 in 10.0 mi East 4.6 mph - N/A   Clear
5:53 AM 24.1 °F 17.0 °F 18.0 °F 77% 30.20 in 10.0 mi ESE 5.8 mph - N/A   Clear
6:53 AM 24.1 °F 17.0 °F 19.0 °F 81% 30.22 in 10.0 mi East 5.8 mph - N/A   Clear
7:53 AM 30.0 °F 22.4 °F 23.0 °F 75% 30.23 in 10.0 mi SE 8.1 mph - N/A   Clear
8:53 AM 34.0 °F 25.5 °F 23.0 °F 64% 30.23 in 10.0 mi SE 11.5 mph - N/A   Clear
9:53 AM 39.0 °F 34.0 °F 23.0 °F 53% 30.21 in 10.0 mi SE 6.9 mph - N/A   Clear
10:53 AM 43.0 °F 37.7 °F 24.1 °F 47% 30.20 in 10.0 mi SE 9.2 mph - N/A   Clear
11:53 AM 48.9 °F - 25.0 °F 39% 30.17 in 10.0 mi ESE 11.5 mph 16.1 mph N/A   Clear
12:53 PM 51.1 °F - 25.0 °F 36% 30.14 in 10.0 mi East 9.2 mph 18.4 mph N/A   Clear
1:53 PM 54.0 °F - 25.0 °F 33% 30.11 in 10.0 mi ESE 11.5 mph 16.1 mph N/A   Clear
2:53 PM 53.1 °F - 25.0 °F 34% 30.10 in 10.0 mi East 9.2 mph 17.3 mph N/A   Clear
3:53 PM 54.0 °F - 25.0 °F 33% 30.09 in 10.0 mi SE 10.4 mph 21.9 mph N/A   Clear
4:53 PM 55.0 °F - 25.0 °F 31% 30.08 in 10.0 mi ESE 11.5 mph 18.4 mph N/A   Clear
5:53 PM 54.0 °F - 25.0 °F 33% 30.09 in 10.0 mi ESE 9.2 mph - N/A   Clear
6:53 PM 52.0 °F - 25.0 °F 35% 30.11 in 10.0 mi SE 9.2 mph - N/A   Mostly Cloudy
7:53 PM 46.9 °F - 25.0 °F 42% 30.12 in 10.0 mi SSE 6.9 mph - N/A   Clear
8:53 PM 43.0 °F 39.5 °F 25.0 °F 49% 30.14 in 10.0 mi SE 5.8 mph - N/A   Clear
9:53 PM 37.0 °F 31.6 °F 23.0 °F 57% 30.15 in 10.0 mi ESE 6.9 mph - N/A   Clear
10:53 PM 34.0 °F 28.0 °F 21.9 °F 61% 30.15 in 10.0 mi East 6.9 mph - N/A   Clear
11:53 PM 34.0 °F 29.8 °F 21.9 °F 61% 30.12 in 10.0 mi ESE 4.6 mph - N/A   Clear